Tracking 27097 objects as of 29-Mar-2023
HD Live streaming from Space Station
objects crossing your sky now

ELEKTRO-L 4

Track ELEKTRO-L 4 now!


NORAD ID: 55506
Int'l Code: 2023-016A
Perigee: 35,758.9 km
Apogee: 35,827.4 km
Inclination: 0.4 °
Period: 1,436.1 minutes
Semi major axis: 42164 km
RCS: Unknown
Launch date: February 5, 2023
Source: Commonwealth of Independent States (former USSR) (CIS)
Launch site: TYURATAM MISSILE AND SPACE COMPLEX (TTMTR)
Your satellite tracking list
Your tracking list is empty




NASA's NSSDC Master Catalog

Two Line Element Set (TLE):
1 55506U 23016A   23087.80000000 -.00000066  00000-0  00000+0 0  9993
2 55506   0.4370 287.1570 0008118  51.4860 301.0760  1.00273837   513
Source of the keplerian elements: AFSPC